TimePDT,TemperatureF,Dew PointF,Humidity,Sea Level PressureIn,VisibilityMPH,Wind Direction,Wind SpeedMPH,Gust SpeedMPH,PrecipitationIn,Events,Conditions,WindDirDegrees,DateUTC
12:53 AM,44.1,32.0,63,30.47,10.0,NW,5.8,-,N/A,,Clear,320,2013-05-01 07:53:00
1:53 AM,44.1,32.0,63,30.48,10.0,Variable,4.6,-,N/A,,Clear,0,2013-05-01 08:53:00
2:53 AM,42.1,33.1,70,30.48,10.0,NW,3.5,-,N/A,,Clear,320,2013-05-01 09:53:00
3:53 AM,41.0,33.1,73,30.50,10.0,North,3.5,-,N/A,,Clear,360,2013-05-01 10:53:00
5:53 AM,37.0,32.0,82,30.52,10.0,Calm,Calm,-,N/A,,Clear,0,2013-05-01 12:53:00
6:53 AM,39.0,34.0,82,30.52,10.0,Calm,Calm,-,N/A,,Clear,0,2013-05-01 13:53:00
7:53 AM,42.1,34.0,73,30.54,10.0,NNW,4.6,-,N/A,,Clear,340,2013-05-01 14:53:00
8:53 AM,45.0,34.0,65,30.54,10.0,East,3.5,-,N/A,,Clear,80,2013-05-01 15:53:00
9:53 AM,48.9,36.0,61,30.53,10.0,WNW,4.6,-,N/A,,Clear,300,2013-05-01 16:53:00
10:53 AM,52.0,37.0,57,30.53,10.0,WNW,5.8,-,N/A,,Clear,290,2013-05-01 17:53:00
11:53 AM,55.9,37.0,49,30.52,10.0,WNW,9.2,-,N/A,,Clear,300,2013-05-01 18:53:00
12:53 PM,60.1,36.0,41,30.50,10.0,Variable,5.8,-,N/A,,Clear,0,2013-05-01 19:53:00
2:53 PM,66.9,35.1,31,30.48,10.0,WNW,8.1,-,N/A,,Clear,290,2013-05-01 21:53:00
3:53 PM,68.0,33.1,27,30.47,10.0,NW,9.2,-,N/A,,Clear,320,2013-05-01 22:53:00
4:53 PM,70.0,33.1,26,30.45,10.0,WNW,8.1,-,N/A,,Clear,300,2013-05-01 23:53:00
5:53 PM,70.0,34.0,27,30.45,10.0,NNW,6.9,-,N/A,,Clear,330,2013-05-02 00:53:00
6:53 PM,68.0,32.0,26,30.45,10.0,NW,5.8,-,N/A,,Clear,320,2013-05-02 01:53:00
7:53 PM,66.0,32.0,28,30.45,10.0,North,4.6,-,N/A,,Clear,350,2013-05-02 02:53:00
8:53 PM,63.0,33.1,33,30.45,10.0,Variable,4.6,-,N/A,,Clear,0,2013-05-02 03:53:00
9:53 PM,60.1,36.0,41,30.47,10.0,NNW,4.6,-,N/A,,Clear,330,2013-05-02 04:53:00
10:53 PM,59.0,35.1,41,30.47,10.0,North,3.5,-,N/A,,Clear,350,2013-05-02 05:53:00
11:53 PM,54.0,36.0,51,30.47,10.0,Calm,Calm,-,N/A,,Clear,0,2013-05-02 06:53:00